User: anonymous   Login
Location: Unspecified
(0.0000°N, 0.0000°E)
Time: 19:04:08
(UTC+00:00)
Language:

ATHENOXAT 1 - Orbit

View from above orbital plane
View from above orbital plane
View from above satellite
View from above satellite

Ground track
Ground track

The orbit data is extracted from the following two-line orbital elements,

1 41168U 15077C   17084.17388252 +.00002418 +00000-0 +10062-3 0  9993
2 41168 014.9860 063.0379 0012060 294.3176 052.8311 15.11248227070302
Epoch (UTC): 25 March 2017 04:10:23
Eccentricity: 0.0012060
inclination: 14.9860°
perigee height: 524 km
apogee height: 541 km
right ascension of ascending node: 63.0379°
argument of perigee: 294.3176°
revolutions per day: 15.11248227
mean anomaly at epoch: 52.8311°
orbit number at epoch: 7030

The dashed part of the orbit path shows where the satellite is in the earth's shadow,  

DLR